Regional Weather Roundup
Issued by NWS

Home | Current Version | Previous Version | Graphics & Text | Print | Product List | Glossary On
Versions: 1 2 3 4 5 6 7 8 9 10 11 12 13 14 15 16 17 18 19 20 21 22 23 24 25 26 27 28 29 30 31 32 33 34 35 36 37 38 39 40 41 42 43 44 45 46 47 48 49 50
000
ASUS44 KMEG 280300
RWRTN
TENNESSEE HOURLY STATE WEATHER ROUNDUP
NATIONAL WEATHER SERVICE MEMPHIS TN
1000 PM CDT SUN JUL 27 2014

TNZ002-004-019-021-049-052-054-088>092-280400-
WEST TENNESSEE

CITY           SKY/WX    TMP DP  RH WIND       PRES   REMARKS
MEMPHIS INTL   PTCLDY    86  77  74 W6        29.95R HX  97
NWS MEMPHIS      N/A     86 N/A N/A MISG        N/A
JACKSON        CLEAR     82  77  84 W6        29.93R HX  90
DYERSBURG      PTCLDY    82  70  65 W3        29.93R
$$

TNZ008-025-027-028-033-062-065-066-280400-
NORTH MIDDLE TENNESSEE

CITY           SKY/WX    TMP DP  RH WIND       PRES   REMARKS
NASHVILLE      TSTM      83  76  79 N16       29.91R HX  91
CLARKSVILLE    PTCLDY    83  72  69 W8        29.88S
CROSSVILLE     LGT RAIN  80  71  74 W14G24    29.93S
$$

TNZ061-075-076-078-094-096-097-280400-
SOUTH MIDDLE TENNESSEE

CITY           SKY/WX    TMP DP  RH WIND       PRES   REMARKS
$$

TNZ017-018-042-046-047-280400-
NORTHEAST TENNESSEE

CITY           SKY/WX    TMP DP  RH WIND       PRES   REMARKS
TRI CITIES     TSTM      69  64  84 W8        29.94R
$$

TNZ012-013-036-069-073-074-280400-
CENTRAL EAST TENNESSEE

CITY           SKY/WX    TMP DP  RH WIND       PRES   REMARKS
KNOXVILLE      MOCLDY    75  68  78 S9        29.86F
OAK RIDGE      CLOUDY    74  71  91 CALM      29.88F
$$

TNZ083-085-099-280400-
SOUTHEAST TENNESSEE

CITY           SKY/WX    TMP DP  RH WIND       PRES   REMARKS
CHATTANOOGA    MOCLDY    85  71  63 S10       29.92S HX  90
$$

SKY/WX REPORTED AS FAIR MEANS FEW OR NO CLOUDS BELOW
12 THOUSAND FEET.




USA.gov is the U.S. government's official web portal to all federal, state and local government web resources and services.